STARLINK-2236 (48582 NORAD) Tracking and Keplerian Element Data

This shows tracking and keplerian element data for the satellite.

Feedback or suggestion? Click here.




ElementValue
Catalog48582
NameSTARLINK-2236
Epoch Orbit364
Epoch Day214.91667824
Epoch Year2021
RAAN104.7788
Inclination53.0546
Eccentricity0.0001834
Argument of Perigee53.5643
Mean Anonmoly120.4896
Mean Motion15.42172096
Decay Rate-9.549E-05
L11 48582U 21041AF 21214.91667824 -.00009549 00000-0 -21011-3 0 9995
L22 48582 53.0546 104.7788 0001834 53.5643 120.4896 15.42172096 3649

Live tracking and technical data element details for STARLINK-2236 (NORAD 48582). STARLINK-2236 can be tracked NOW for your location showing map with azimuth and elevation plus other details from your city location.

Track the satellite on the map from your city or location and see movement details for azimuth, elevation, latitude, longitude, range, height, and movement on the map or in text.







IsCatalogInMostPopularTable: catalog: 48582, numindb: 17
Update: records affected: 1



GetName: 48582 STARLINK-2236

Hit Count: updated at: Wed, 04 Aug 2021 00:14:21 GMT